TimeEST,TemperatureF,Dew PointF,Humidity,Sea Level PressureIn,VisibilityMPH,Wind Direction,Wind SpeedMPH,Gust SpeedMPH,PrecipitationIn,Events,Conditions,WindDirDegrees,DateUTC
12:54 AM,32.0,28.0,85,30.54,10.0,South,4.6,-,N/A,,Clear,180,2012-11-19 05:54:00
1:54 AM,30.9,27.0,85,30.53,10.0,SSE,5.8,-,N/A,,Clear,150,2012-11-19 06:54:00
2:54 AM,28.9,26.1,89,30.53,10.0,ESE,8.1,-,N/A,,Clear,120,2012-11-19 07:54:00
3:54 AM,28.9,26.1,89,30.53,10.0,SE,10.4,-,N/A,,Clear,130,2012-11-19 08:54:00
4:54 AM,28.9,26.1,89,30.52,10.0,SE,9.2,-,N/A,,Clear,130,2012-11-19 09:54:00
5:54 AM,28.9,26.1,89,30.52,10.0,SE,8.1,-,N/A,,Clear,140,2012-11-19 10:54:00
6:54 AM,28.0,26.1,92,30.53,9.0,SE,6.9,-,N/A,,Clear,140,2012-11-19 11:54:00
7:54 AM,28.9,26.1,89,30.52,7.0,SE,8.1,-,N/A,,Clear,130,2012-11-19 12:54:00
8:54 AM,33.1,28.9,85,30.51,8.0,SE,6.9,-,N/A,,Clear,130,2012-11-19 13:54:00
9:54 AM,39.9,33.1,77,30.49,10.0,SSE,6.9,-,N/A,,Clear,150,2012-11-19 14:54:00
10:54 AM,43.0,34.0,71,30.47,10.0,SSE,11.5,-,N/A,,Clear,150,2012-11-19 15:54:00
11:54 AM,46.0,35.1,66,30.44,10.0,SSE,6.9,-,N/A,,Clear,150,2012-11-19 16:54:00
12:54 PM,48.0,35.1,61,30.40,10.0,SSE,4.6,-,N/A,,Clear,150,2012-11-19 17:54:00
1:54 PM,51.1,33.1,50,30.37,10.0,Calm,Calm,-,N/A,,Clear,0,2012-11-19 18:54:00
2:54 PM,53.1,34.0,48,30.36,10.0,Calm,Calm,-,N/A,,Clear,0,2012-11-19 19:54:00
3:54 PM,48.0,35.1,61,30.34,10.0,NNW,4.6,-,N/A,,Clear,340,2012-11-19 20:54:00
4:54 PM,45.0,35.1,68,30.34,10.0,Calm,Calm,-,N/A,,Clear,0,2012-11-19 21:54:00
5:54 PM,39.9,34.0,79,30.35,10.0,Calm,Calm,-,N/A,,Clear,0,2012-11-19 22:54:00
6:54 PM,37.0,32.0,82,30.35,10.0,Calm,Calm,-,N/A,,Clear,0,2012-11-19 23:54:00
7:54 PM,35.1,30.9,85,30.34,10.0,SSE,3.5,-,N/A,,Clear,160,2012-11-20 00:54:00
8:54 PM,35.1,30.9,85,30.33,10.0,South,4.6,-,N/A,,Clear,170,2012-11-20 01:54:00
10:54 PM,32.0,28.9,88,30.30,10.0,SSE,3.5,-,N/A,,Clear,150,2012-11-20 03:54:00
11:54 PM,34.0,30.0,85,30.30,10.0,SSE,5.8,-,N/A,,Clear,160,2012-11-20 04:54:00